Regional Weather Roundup
Issued by NWS

Home | Current Version | Previous Version | Text Only | Print | Product List | Glossary Off
Versions: 1 2 3 4 5 6 7 8 9 10 11 12 13 14 15 16 17 18 19 20 21 22 23 24 25 26 27 28 29 30 31 32 33 34 35 36 37 38 39 40 41 42 43 44 45 46 47 48 49 50

000
ASUS44 KMEG 111200
RWRTN
TENNESSEE HOURLY STATE WEATHER ROUNDUP
NATIONAL WEATHER SERVICE MEMPHIS TN
700 AM CDT FRI JUL 11 2014

TNZ002-004-019-021-049-052-054-088>092-111300-
WEST TENNESSEE

CITY           SKY/WX    TMP DP  RH WIND       PRES   REMARKS
MEMPHIS INTL   PTSUNNY   78  65  63 CALM      30.13R
NWS MEMPHIS      N/A     71 N/A N/A MISG        N/A
JACKSON        MOSUNNY   68  65  90 CALM      30.15R FOG
DYERSBURG      CLOUDY    72  63  73 CALM      30.16R
UNION CITY     PTSUNNY   68  66  94 CALM      30.15R
LEXINGTON      SUNNY     66  64  94 CALM      30.15R
$$

TNZ008-025-027-028-033-062-065-066-111300-
NORTH MIDDLE TENNESSEE

CITY           SKY/WX    TMP DP  RH WIND       PRES   REMARKS
NASHVILLE      MOSUNNY   70  65  84 CALM      30.17R
CLARKSVILLE    SUNNY     67  64  90 CALM      30.16R
COOKEVILLE     SUNNY     64  63  94 CALM      30.17R
CROSSVILLE     SUNNY     69  62  78 CALM      30.21R
$$

TNZ061-075-076-078-094-096-097-111300-
SOUTH MIDDLE TENNESSEE

CITY           SKY/WX    TMP DP  RH WIND       PRES   REMARKS
TULLAHOMA      SUNNY     66  63  88 CALM      30.17S
WINCHESTER     SUNNY     64  63  94 CALM      30.16S
MCMINNVILLE    SUNNY     64  64 100 NE3       30.17R
COLUMBIA       SUNNY     68  66  94 CALM      30.15R
$$

TNZ017-018-042-046-047-111300-
NORTHEAST TENNESSEE

CITY           SKY/WX    TMP DP  RH WIND       PRES   REMARKS
TRI CITIES     MOSUNNY   65  62  90 CALM      30.21R FOG
ELIZABETHTON   SUNNY     64  61  88 NE5       30.22R
$$

TNZ012-013-036-069-073-074-111300-
CENTRAL EAST TENNESSEE

CITY           SKY/WX    TMP DP  RH WIND       PRES   REMARKS
KNOXVILLE      MOSUNNY   67  65  93 E3        30.16R
OAK RIDGE      SUNNY     68  65  90 CALM      30.19R
$$

TNZ083-085-099-111300-
SOUTHEAST TENNESSEE

CITY           SKY/WX    TMP DP  RH WIND       PRES   REMARKS
CHATTANOOGA    MOSUNNY   72  65  78 CALM      30.15R
$$

SKY/WX REPORTED AS FAIR MEANS FEW OR NO CLOUDS BELOW
12 THOUSAND FEET.




USA.gov is the U.S. government's official web portal to all federal, state and local government web resources and services.